{"data":{"norad_id":67501,"intl_designator":"2026-012J","name":"STARLINK-36433","alt_names":[],"object_type":"PAYLOAD","status":"ACTIVE","operator":null,"country":"US","launch_date":"2026-01-18","launch_site_code":"AFETR","launch_vehicle":null,"mission":null,"orbit_class":"UNKNOWN","rcs_meters":null,"size_class":null,"mass_kg":null,"dimensions":null,"purposes":["comms"],"wikipedia_slug":null,"has_3d_model":false,"image_url":null,"decayed_at":null,"tle_current":{"epoch":"2026-05-24T16:17:41.058816Z","epoch_age_seconds":96175,"freshness":"FRESH","line1":"1 67501U 26012J   26144.67894744  .00011246  00000+0  41748-3 0  9996","line2":"2 67501  43.0034 245.2395 0001995 281.1934  78.8693 15.27586321 19389","mean_motion":15.27586321,"eccentricity":0.0001995,"inclination_deg":43.0034,"raan_deg":245.2395,"arg_perigee_deg":281.1934,"mean_anomaly_deg":78.8693,"bstar":0.00041748,"rev_number":1938,"period_min":94.266358647237,"perigee_km":481.66136590678,"apogee_km":484.39897160712,"semimajor_km":6861.167168757,"source":"CELESTRAK","updated_at":"2026-05-25T13:38:21.567966Z"}}}